Flag for U.S.A. Weather past 2 weeks in Montpelier, Vermont, U.S.A.

Now
40 °F

Partly sunny.


Feels Like: 34 °F
Forecast: 35 / 58 °F
Wind: 9 mph from Northeast

Location: Knapp State Airport

Current Time: Apr 19, 2015 at 9:32:22 AM

Latest Report: Apr 19, 2015 at 8:51 AM


Visibility: 10 mi

Pressure: 30.34 "Hg

Humidity: 58%

Dew point: 26 °F

Location of MontpelierLocation

Historic Weather in Montpelier — Graph

°F

Montpelier temperature yesterday

Maximum temperature yesterday: 62 °F (at 1:51 PM)
Minimum temperature yesterday: 33 °F (at 5:51 AM)
Average temperature yesterday: 48 °F

Past Weeks' High & Low Weather Summary

 TemperatureHumidityPressure
High69 °F (Apr 13, 4:51 PM)100% (Apr 7, 12:02 AM)30.53 "Hg (Apr 7, 12:02 AM)
Low17 °F (Apr 8, 5:51 AM)13% (Apr 16, 5:51 PM)29.64 "Hg (Apr 10, 5:51 PM)
Average39 °F62%30.17 "Hg
* Reported Apr 4 8:51 AM — Apr 19 8:00 AM, Montpelier, Weather by CustomWeather, © 2015

Note: Actual official high and low records may vary slightly from our data, if they occured in-between our weather recording intervals... More about our weather records

Advertising

Montpelier weather history for previous 24 hours

 ConditionsComfort  
Time TempWeatherWind HumidityBarometerVisibility
8:00 AM
Sun, Apr 19
37 °FMore clouds than sun.10 mph70%30.29 "Hg10 mi
6:51 AM37 °FOvercast.9 mph73%30.31 "Hg10 mi
5:58 AM36 °FMostly cloudy.7 mph79%30.25 "Hg10 mi
4:51 AM38 °FMostly cloudy.3 mph73%30.26 "Hg10 mi
3:51 AM38 °FMostly cloudy.9 mph73%30.25 "Hg10 mi
2:51 AM38 °FPassing clouds.10 mph70%30.22 "Hg10 mi
1:51 AM39 °FOvercast.6 mph70%30.20 "Hg10 mi
12:51 AM40 °FPassing clouds.5 mph68%30.20 "Hg10 mi
11:51 PM
Sat, Apr 18
41 °FClear.13 mph65%30.18 "Hg10 mi
10:51 PM42 °FOvercast.15 mph65%30.17 "Hg10 mi
9:51 PM43 °FMostly cloudy.6 mph65%30.15 "Hg10 mi
8:51 PM44 °FPartly cloudy.8 mph65%30.14 "Hg10 mi
7:51 PM45 °FPassing clouds.7 mph60%30.09 "Hg10 mi
6:51 PM48 °FPartly sunny.7 mph56%30.05 "Hg10 mi
5:51 PM52 °FPassing clouds.9 mph47%30.00 "Hg10 mi
4:51 PM54 °FBroken clouds.18 mph47%29.97 "Hg10 mi
3:51 PM52 °FSunny.16 mph69%29.95 "Hg10 mi
2:51 PM49 °FLight rain. Fog.13 mph86%29.93 "Hg5 mi
1:51 PM62 °FScattered clouds.9 mph34%29.84 "Hg10 mi
12:51 PM61 °FBroken clouds.10 mph36%29.88 "Hg10 mi
11:51 AM60 °FScattered clouds.3 mph41%29.90 "Hg10 mi
10:51 AM57 °FPassing clouds.5 mph44%29.94 "Hg10 mi
9:51 AM53 °FPassing clouds.No wind47%29.96 "Hg10 mi
Weather by CustomWeather, © 2015

See weather overviewHow to use our weather pages